• en France
  • Liste des pays
  • À 7 jours
  • Température de l'eau
  • Carte satellitaire
  • Carte météo
  • Widgets météo
  • user-avatar
    Se connecter

    Météo par heure à Sariwon

    Ce jour, 22 Août, Mercredi

    Heure Température Précipitation Vent Pression Humidité
    00:00 +22°C° 0 mm 1 m/s 752 mmHg 89%
    01:00 +20°C° 0 mm 0 m/s 752 mmHg 89%
    02:00 +19°C° 0 mm 0 m/s 752 mmHg 88%
    03:00 +21°C° 0 mm 1 m/s 753 mmHg 89%
    04:00 +21°C° 0 mm 1 m/s 753 mmHg 90%
    05:00 +21°C° 0 mm 1 m/s 753 mmHg 90%
    06:00 +23°C° 0 mm 1 m/s 753 mmHg 86%
    07:00 +24°C° 0 mm 1 m/s 753 mmHg 81%
    08:00 +26°C° 0 mm 1 m/s 753 mmHg 77%
    09:00 +28°C° 0 mm 2 m/s 753 mmHg 71%
    10:00 +29°C° 0 mm 2 m/s 753 mmHg 66%
    11:00 +31°C° 0 mm 2 m/s 753 mmHg 60%
    12:00 +31°C° 0 mm 2 m/s 752 mmHg 58%
    13:00 +32°C° 0 mm 2 m/s 752 mmHg 56%
    14:00 +32°C° 0 mm 2 m/s 752 mmHg 54%
    15:00 +32°C° 0 mm 2 m/s 751 mmHg 59%
    16:00 +31°C° 0 mm 2 m/s 751 mmHg 64%
    17:00 +30°C° 0 mm 2 m/s 751 mmHg 70%
    18:00 +29°C° 0,1 mm 2 m/s 751 mmHg 74%
    19:00 +27°C° 0,1 mm 2 m/s 751 mmHg 78%
    20:00 +25°C° 0,1 mm 2 m/s 751 mmHg 82%
    21:00 +25°C° 0,5 mm 2 m/s 751 mmHg 84%
    22:00 +25°C° 0,5 mm 2 m/s 751 mmHg 85%
    23:00 +25°C° 0,5 mm 2 m/s 752 mmHg 87%

    Demain, 23 Août, Jeudi

    Heure Température Précipitation Vent Pression Humidité
    00:00 +24°C° 0,4 mm 2 m/s 751 mmHg 88%
    01:00 +24°C° 0,4 mm 2 m/s 751 mmHg 89%
    02:00 +24°C° 0,4 mm 2 m/s 751 mmHg 90%
    03:00 +24°C° 0,4 mm 2 m/s 751 mmHg 90%
    04:00 +24°C° 0,4 mm 2 m/s 751 mmHg 89%
    05:00 +24°C° 0,4 mm 2 m/s 751 mmHg 89%
    06:00 +24°C° 0,5 mm 3 m/s 751 mmHg 89%
    07:00 +25°C° 0,5 mm 3 m/s 751 mmHg 89%
    08:00 +25°C° 0,5 mm 3 m/s 751 mmHg 90%
    09:00 +25°C° 1,9 mm 3 m/s 751 mmHg 90%
    10:00 +26°C° 1,9 mm 4 m/s 751 mmHg 89%
    11:00 +27°C° 1,9 mm 4 m/s 751 mmHg 89%
    12:00 +27°C° 2,1 mm 4 m/s 750 mmHg 89%
    13:00 +27°C° 2,1 mm 4 m/s 750 mmHg 89%
    14:00 +27°C° 2,1 mm 5 m/s 749 mmHg 89%
    15:00 +27°C° 1,7 mm 5 m/s 749 mmHg 90%
    16:00 +26°C° 1,7 mm 5 m/s 748 mmHg 90%
    17:00 +26°C° 1,7 mm 5 m/s 748 mmHg 91%
    18:00 +26°C° 1,6 mm 5 m/s 748 mmHg 91%
    19:00 +26°C° 1,6 mm 5 m/s 747 mmHg 91%
    20:00 +26°C° 1,6 mm 6 m/s 747 mmHg 91%
    21:00 +26°C° 1 mm 6 m/s 746 mmHg 91%
    22:00 +26°C° 1 mm 6 m/s 745 mmHg 91%
    23:00 +26°C° 1 mm 6 m/s 744 mmHg 91%

    Après-demain, 24 Août, Vendredi

    Heure Température Précipitation Vent Pression Humidité
    00:00 +26°C° 1 mm 6 m/s 742 mmHg 90%
    01:00 +26°C° 1 mm 7 m/s 741 mmHg 90%
    02:00 +26°C° 1 mm 7 m/s 740 mmHg 90%
    03:00 +26°C° 0,7 mm 8 m/s 739 mmHg 89%
    04:00 +27°C° 0,7 mm 9 m/s 737 mmHg 87%
    05:00 +27°C° 0,7 mm 10 m/s 736 mmHg 86%
    06:00 +27°C° 4,5 mm 11 m/s 736 mmHg 87%
    07:00 +26°C° 4,5 mm 12 m/s 736 mmHg 88%
    08:00 +26°C° 4,5 mm 12 m/s 735 mmHg 88%
    09:00 +26°C° 10 mm 13 m/s 735 mmHg 89%
    10:00 +24°C° 10 mm 13 m/s 735 mmHg 90%
    11:00 +24°C° 10 mm 13 m/s 736 mmHg 91%
    12:00 +24°C° 2 mm 12 m/s 736 mmHg 91%
    13:00 +23°C° 2 mm 12 m/s 737 mmHg 90%
    14:00 +23°C° 2 mm 11 m/s 737 mmHg 90%
    15:00 +23°C° 0,2 mm 10 m/s 738 mmHg 90%
    16:00 +23°C° 0,2 mm 8 m/s 739 mmHg 91%
    17:00 +23°C° 0,2 mm 7 m/s 740 mmHg 91%
    18:00 +23°C° 0,2 mm 6 m/s 741 mmHg 92%
    19:00 +23°C° 0,2 mm 5 m/s 742 mmHg 93%
    20:00 +22°C° 0,2 mm 4 m/s 743 mmHg 94%
    21:00 +22°C° 0 mm 4 m/s 744 mmHg 93%
    22:00 +22°C° 0 mm 4 m/s 745 mmHg 92%
    23:00 +22°C° 0 mm 4 m/s 745 mmHg 91%

    25 Août, Samedi

    Heure Température Précipitation Vent Pression Humidité
    00:00 +22°C° 0,1 mm 4 m/s 746 mmHg 91%
    01:00 +22°C° 0,1 mm 4 m/s 746 mmHg 91%
    02:00 +22°C° 0,1 mm 4 m/s 747 mmHg 90%
    03:00 +22°C° 0,1 mm 4 m/s 747 mmHg 90%
    04:00 +22°C° 0,1 mm 3 m/s 748 mmHg 90%
    05:00 +22°C° 0,1 mm 3 m/s 748 mmHg 89%
    06:00 +22°C° 0,1 mm 3 m/s 749 mmHg 89%
    07:00 +22°C° 0,1 mm 3 m/s 749 mmHg 88%
    08:00 +22°C° 0,1 mm 3 m/s 750 mmHg 88%
    09:00 +23°C° 0,1 mm 4 m/s 750 mmHg 83%
    10:00 +25°C° 0,1 mm 4 m/s 750 mmHg 79%
    11:00 +26°C° 0,1 mm 5 m/s 751 mmHg 74%
    12:00 +27°C° 0 mm 5 m/s 751 mmHg 73%
    13:00 +27°C° 0 mm 5 m/s 751 mmHg 73%
    14:00 +27°C° 0 mm 5 m/s 751 mmHg 72%
    15:00 +27°C° 0 mm 4 m/s 751 mmHg 75%
    16:00 +26°C° 0 mm 4 m/s 751 mmHg 77%
    17:00 +26°C° 0 mm 3 m/s 752 mmHg 79%
    18:00 +24°C° 0 mm 2 m/s 752 mmHg 82%
    19:00 +23°C° 0 mm 2 m/s 753 mmHg 85%
    20:00 +22°C° 0 mm 1 m/s 753 mmHg 87%
    21:00 +21°C° 0 mm 1 m/s 753 mmHg 88%
    22:00 +21°C° 0 mm 1 m/s 753 mmHg 88%
    23:00 +21°C° 0 mm 1 m/s 754 mmHg 88%

    26 Août, Dimanche

    Heure Température Précipitation Vent Pression Humidité
    00:00 +21°C° 0 mm 1 m/s 753 mmHg 89%
    01:00 +20°C° 0 mm 1 m/s 753 mmHg 89%
    02:00 +20°C° 0 mm 1 m/s 753 mmHg 89%
    03:00 +20°C° 0 mm 1 m/s 754 mmHg 89%
    04:00 +20°C° 0 mm 1 m/s 754 mmHg 90%
    05:00 +20°C° 0 mm 1 m/s 754 mmHg 90%
    06:00 +22°C° 0 mm 1 m/s 754 mmHg 85%
    07:00 +23°C° 0 mm 2 m/s 755 mmHg 81%
    08:00 +25°C° 0 mm 2 m/s 755 mmHg 77%
    09:00 +27°C° 0 mm 1 m/s 755 mmHg 72%
    10:00 +28°C° 0 mm 1 m/s 755 mmHg 68%
    11:00 +30°C° 0 mm 1 m/s 754 mmHg 64%
    12:00 +30°C° 0 mm 1 m/s 754 mmHg 62%
    13:00 +30°C° 0 mm 2 m/s 754 mmHg 61%
    14:00 +31°C° 0 mm 2 m/s 754 mmHg 60%
    15:00 +30°C° 0 mm 2 m/s 754 mmHg 64%
    16:00 +30°C° 0 mm 2 m/s 754 mmHg 69%
    17:00 +29°C° 0 mm 2 m/s 754 mmHg 73%
    18:00 +27°C° 0 mm 1 m/s 754 mmHg 78%
    19:00 +26°C° 0 mm 1 m/s 754 mmHg 83%
    20:00 +24°C° 0 mm 1 m/s 755 mmHg 87%
    21:00 +24°C° 0 mm 1 m/s 755 mmHg 88%
    22:00 +23°C° 0 mm 1 m/s 755 mmHg 89%
    23:00 +23°C° 0 mm 1 m/s 755 mmHg 89%

    27 Août, Lundi

    Heure Température Précipitation Vent Pression Humidité
    00:00 +23°C° 0 mm 1 m/s 755 mmHg 89%
    01:00 +23°C° 0 mm 1 m/s 755 mmHg 89%
    02:00 +22°C° 0 mm 1 m/s 755 mmHg 90%
    03:00 +22°C° 0 mm 1 m/s 755 mmHg 89%
    04:00 +22°C° 0 mm 1 m/s 755 mmHg 89%
    05:00 +22°C° 0 mm 1 m/s 755 mmHg 89%
    06:00 +23°C° 0 mm 1 m/s 755 mmHg 84%
    07:00 +25°C° 0 mm 1 m/s 755 mmHg 79%
    08:00 +27°C° 0 mm 1 m/s 756 mmHg 73%
    09:00 +28°C° 0 mm 1 m/s 755 mmHg 69%
    10:00 +29°C° 0 mm 1 m/s 755 mmHg 65%
    11:00 +31°C° 0 mm 1 m/s 755 mmHg 60%
    12:00 +31°C° 0 mm 1 m/s 755 mmHg 60%
    13:00 +31°C° 0 mm 1 m/s 755 mmHg 59%
    14:00 +32°C° 0 mm 2 m/s 754 mmHg 59%
    15:00 +31°C° 0 mm 2 m/s 754 mmHg 64%
    16:00 +30°C° 0 mm 2 m/s 754 mmHg 69%
    17:00 +30°C° 0 mm 2 m/s 754 mmHg 74%
    18:00 +28°C° 0 mm 1 m/s 754 mmHg 78%
    19:00 +26°C° 0 mm 1 m/s 755 mmHg 82%
    20:00 +23°C° 0 mm 0 m/s 755 mmHg 86%
    21:00 +22°C° 0 mm 0 m/s 755 mmHg 87%
    22:00 +22°C° 0 mm 0 m/s 755 mmHg 87%
    23:00 +22°C° 0 mm 0 m/s 755 mmHg 88%
    Voir plus